888  
ASUS41 KPHI 042010  
RWRPHI  
 
REGIONAL WEATHER ROUNDUP  
NATIONAL WEATHER SERVICE MOUNT HOLLY NJ  
300 PM EST SUN DEC 04 2022  
 
NOTE: "FAIR" INDICATES FEW OR NO CLOUDS BELOW 12,000 FEET WITH NO  
SIGNIFICANT WEATHER AND/OR S TO VISIBILITY
.  
 
* = STATION DOES NOT REPORT PRECIPITATION (E.G. RAIN, SNOW, ETC.)  
OR FOG.
 
 
NJZ015>026-042100-  
SOUTHERN NEW JERSEY  
 
CITY SKY/WX TMP DP RH WIND PRES REMARKS
 
POMONA MOSUNNY 45 24 43 W5 30.18S  
WILDWOOD* MOSUNNY 43 28 55 W9 30.21S  
MILLVILLE MOSUNNY 45 25 45 W8 30.19S  
WRIGHTSTOWN MOSUNNY 45 23 42 W6 30.18R  
MOUNT HOLLY MOSUNNY 44 22 41 NW8 30.19R  
TRENTON MOSUNNY 44 23 43 NW5 30.17R  
 

 
NJZ001>014-042100-  
NORTHERN NEW JERSEY  
 
CITY SKY/WX TMP DP RH WIND PRES REMARKS
 
SUSSEX N/A 42 20 41 NW5 30.15R  
ANDOVER* N/A 44 22 41 VRB3 30.14R  
MORRISTOWN MOSUNNY 45 25 45 W5 30.15F  
NEWARK PTSUNNY 47 22 37 CALM 30.15S  
TETERBORO MOSUNNY 45 21 38 VRB5 30.15R  
CALDWELL PTSUNNY 45 20 36 VRB3 30.16R  
SOMERVILLE MOSUNNY 45 24 43 VRB3 30.15R  
ALLAIRE* MOSUNNY 45 24 43 SW6 30.18R  
 

 
PAZ043-044-047-054-055-060>062-066>071-042100-  
EASTERN PENNSYLVANIA  
 
CITY SKY/WX TMP DP RH WIND PRES REMARKS
 
PHILADELPHIA PTSUNNY 45 22 40 W8 30.20R  
NORTH PHILA SUNNY 44 23 43 W8 30.20R  
BLUE BELL* SUNNY 43 22 43 W9 30.19R  
DOYLESTOWN MOSUNNY 44 21 40 NW5 30.16R  
QUAKERTOWN* SUNNY 43 23 45 VRB5 30.16S  
PERKASIE* FAIR 41 23 48 W7 30.17S  
LANCASTER SUNNY 42 22 44 W10 30.19S  
COATESVILLE SUNNY 39 23 52 W10 30.19S WCI 32  
WEST CHESTER FAIR 43 23 45 W6 30.18S  
READING MOSUNNY 42 22 44 W12 30.16F  
ALLENTOWN MOSUNNY 42 22 44 W9 30.16S  
QN CITY/ALNTWN FAIR 43 27 52 SW10 30.17S  
MOUNT POCONO PTSUNNY 35 20 54 W5 30.08S WCI 31  
HAZLETON PTSUNNY 36 21 55 W3 30.15R  
LEHIGHTON FAIR 43 19 39 W3 30.16R  
WILKES BARRE PTSUNNY 39 22 50 SW7 30.14R WCI 34  
 

 
DEZALL-MDZ008-012-015-019-020-042100-  
DELAWARE AND EASTERN MARYLAND  
 
CITY SKY/WX TMP DP RH WIND PRES REMARKS
 
WILMINGTON SUNNY 45 20 36 NW10 30.20S  
DOVER MOSUNNY 46 20 35 W8 30.19S  
CHESWOLD CLEAR 45 23 42 NW8 30.20R  
GEORGETOWN MOSUNNY 47 24 40 W7 30.21R  
EASTON SUNNY 43 27 52 W5 30.26S  
STEVENSVILLE SUNNY 44 26 49 CALM 30.22S  
PATUXENT SUNNY 49 27 42 NW5 30.22F  
OCEAN CITY MOSUNNY 47 27 45 W5 30.21R  
WALLOPS ISLAND MOSUNNY 47 27 45 NW6 30.22R  
CAMBRIDGE SUNNY 45 23 42 VRB5 30.22S  
SALISBURY MOSUNNY 46 27 47 W6 30.21R  
 

 
PAZ001-021-NYZ056-072-MDZ011-DCZ001-042100-  
OTHER NEARBY LOCATIONS  
 
CITY SKY/WX TMP DP RH WIND PRES REMARKS
 
HARRISBURG PTSUNNY 42 23 46 W8 30.19F  
STATE COLLEGE SUNNY 37 18 44 W13 30.15F WCI 29  
WILLIAMSPORT MOSUNNY 42 19 39 SW8 30.15F  
BINGHAMTON MOSUNNY 32 18 56 SW6 30.09R WCI 26  
NEW YORK CITY MOSUNNY 45 19 35 VRB3 30.18R  
BALTIMORE PTSUNNY 47 21 35 W8 30.20S  
WASHINGTON DC MOSUNNY 47 20 34 W8 30.23F  
 

 
 
 
CLICK HERE TO GO TO PREVIOUS BULLETINS.

The Nexlab PA Page
The Nexlab NJ Page
The Nexlab DE Page
The Nexlab MD Page Main Text Page